Location: Lomond
(50.3500°N, 112.6333°W)
Time: 10:21:41
(UTC+00:00)

CUBESAT XI-V - Visible Passes

Search period start: 08 December 2023 00:00
Search period end: 18 December 2023 00:00
Orbit: 661 x 683 km, 98.2° (Epoch: 06 December)

Date Brightness Start Highest point End Pass type
(mag) Time Alt. Az. Time Alt. Az. Time Alt. Az.
09 Dec ? 00:31:27 10° NW 00:32:32 11° NW 00:33:38 10° WNW visible
12 Dec ? 00:34:55 10° NW 00:35:26 10° NW 00:35:56 10° WNW visible
14 Dec ? 00:02:26 10° NNW 00:05:26 17° WNW 00:08:25 10° W visible
17 Dec ? 00:05:26 10° NNW 00:08:17 16° WNW 00:11:08 10° W visible
